Location: *
(53.4003°S, 165.3236°W)
Time: 02:13:57
(UTC+00:00)

Cosmos 1125 Rocket - Pass Details

Date: 11 December 2023
Orbit: 756 x 777 km, 74.0° (Epoch: 24 February)

Event Time Altitude Azimuth Distance (km) Brightness Sun altitude
Exits shadow 13:12:01 - 356° (N) 2,639 5.7 -8.0°
Reaches altitude 10° 13:12:52 10° 358° (N) 2,322 5.5 -7.9°
Maximum altitude 13:17:56 50° 72° (ENE) 986 4.2 -7.5°
Drops below altitude 10° 13:23:03 10° 146° (SE) 2,335 7.8 -7.1°
Sets 13:25:29 0° 151° (SSE) 3,265 9.3 -6.9°
